Change the Weather History Date:

Thursday, January 23, 2014

  Actual Average Record
Temperature  
Mean Temperature -2 °F -  
Max Temperature 5 °F 0 °F 44 °F (2002)
Min Temperature -8 °F - -8 °F (2014)
Degree Days  
Heating Degree Days 66    
Moisture  
Dew Point -12 °F    
Average Humidity 63    
Maximum Humidity 75    
Minimum Humidity 54    
Precipitation  
Precipitation 0.00 in - - ()
Sea Level Pressure  
Sea Level Pressure 30.43 in    
Wind  
Wind Speed 15 mph (WNW)    
Max Wind Speed 20 mph    
Max Gust Speed 26 mph    
Visibility 10 miles    
Events      
Averages and records for this station are not official NWS values.
T = Trace of Precipitation, MM = Missing Value Source: NWS Daily Summary

Daily Weather History Graph

Daily Weather History Graph

Search for Another Location

Airport or City:

Trip Planner

Search our weather history database for the weather conditions in past years. The results will help you decide how hot, cold, wet, or windy it might be!

Date:

Astronomy

Jan. 23, 2014 Rise Set
Actual Time 7:20 AM CST 5:00 PM CST
Civil Twilight 6:50 AM CST 5:30 PM CST
Nautical Twilight 6:15 AM CST 6:05 PM CST
Astronomical Twilight 5:42 AM CST 6:38 PM CST
Moon No Moon Rise 10:45 AM CST (1/23)
Length of Visible Light 10h 40m
Length of Day
9h 39m
Waning Gibbous, 55% of the Moon is Illuminated
Jan 23
Waning Gibbous
Jan 23
Last Quarter
Jan 30
New
Feb 6
First Quarter
Feb 14
Full

Hourly Weather History & Observations

Time (CST) Temp. Windchill Dew Point Humidity Pressure Visibility Wind Dir Wind Speed Gust Speed Precip Events Conditions
12:15 AM -3.6 °F -26.5 °F -14.1 °F 61% 30.19 in 10.0 mi WNW 19.6 mph 24.2 mph N/A   Clear
12:35 AM -4.0 °F -23.7 °F -14.1 °F 62% 30.20 in 10.0 mi NW 13.8 mph 23.0 mph N/A   Clear
12:55 AM -4.0 °F -23.7 °F -13.9 °F 63% 30.21 in 10.0 mi NW 13.8 mph 21.9 mph N/A   Clear
1:15 AM -4.0 °F -25.2 °F -14.1 °F 62% 30.21 in 10.0 mi WNW 16.1 mph 24.2 mph N/A   Clear
1:35 AM -4.0 °F -27.0 °F -13.9 °F 63% 30.22 in 10.0 mi WNW 19.6 mph 26.5 mph N/A   Clear
1:55 AM -4.2 °F -26.1 °F -14.1 °F 63% 30.22 in 10.0 mi WNW 17.3 mph 25.3 mph N/A   Clear
2:15 AM -4.2 °F -26.1 °F -14.1 °F 63% 30.23 in 10.0 mi WNW 17.3 mph 25.3 mph N/A   Clear
2:35 AM -4.2 °F -26.7 °F -14.1 °F 63% 30.25 in 10.0 mi WNW 18.4 mph 24.2 mph N/A   Clear
2:55 AM -4.4 °F -26.3 °F -13.9 °F 64% 30.25 in 10.0 mi WNW 17.3 mph 23.0 mph N/A   Clear
3:20 AM -4.5 °F -26.5 °F -14.1 °F 64% 30.26 in 10.0 mi WNW 17.3 mph 24.2 mph N/A   Clear
3:35 AM -4.9 °F -26.3 °F -14.1 °F 65% 30.27 in 10.0 mi WNW 16.1 mph 21.9 mph N/A   Clear
3:55 AM -4.9 °F -25.6 °F -14.1 °F 65% 30.28 in 10.0 mi WNW 15.0 mph 21.9 mph N/A   Clear
4:15 AM -4.9 °F -24.1 °F -14.1 °F 65% 30.30 in 10.0 mi WNW 12.7 mph 19.6 mph N/A   Clear
4:35 AM -5.1 °F -25.1 °F -14.1 °F 65% 30.31 in 10.0 mi WNW 13.8 mph 18.4 mph N/A   Clear
4:55 AM -5.1 °F -25.1 °F -14.1 °F 65% 30.32 in 10.0 mi WNW 13.8 mph - N/A   Clear
5:15 AM -5.3 °F -22.8 °F -13.9 °F 66% 30.32 in 10.0 mi NW 10.4 mph 18.4 mph N/A   Clear
5:35 AM -5.1 °F -25.1 °F -13.9 °F 66% 30.34 in 10.0 mi NW 13.8 mph 19.6 mph N/A   Clear
5:55 AM -5.3 °F -24.6 °F -13.9 °F 66% 30.36 in 10.0 mi NW 12.7 mph - N/A   Clear
6:15 AM -5.1 °F -24.3 °F -13.9 °F 66% 30.37 in 10.0 mi NW 12.7 mph 18.4 mph N/A   Clear
6:35 AM -4.9 °F -24.1 °F -13.5 °F 66% 30.39 in 10.0 mi NW 12.7 mph 20.7 mph N/A   Clear
6:55 AM -5.1 °F -25.9 °F -13.5 °F 67% 30.39 in 10.0 mi NW 15.0 mph 21.9 mph N/A   Clear
7:15 AM -5.3 °F -24.6 °F -13.7 °F 67% 30.41 in 10.0 mi NW 12.7 mph 19.6 mph N/A   Clear
7:35 AM -5.3 °F -25.4 °F -13.7 °F 67% 30.41 in 10.0 mi NW 13.8 mph 20.7 mph N/A   Clear
7:55 AM -4.9 °F -25.6 °F -13.5 °F 66% 30.42 in 10.0 mi NW 15.0 mph 23.0 mph N/A   Clear
8:15 AM -4.5 °F -25.2 °F -13.2 °F 66% 30.42 in 10.0 mi NW 15.0 mph 23.0 mph N/A   Clear
8:35 AM -4.0 °F -25.8 °F -13.0 °F 65% 30.44 in 10.0 mi NW 17.3 mph 26.5 mph N/A   Clear
8:55 AM -3.5 °F -24.5 °F -12.8 °F 64% 30.45 in 10.0 mi NW 16.1 mph 23.0 mph N/A   Clear
9:15 AM -2.7 °F -20.5 °F -12.3 °F 64% 30.46 in 10.0 mi NW 11.5 mph 21.9 mph N/A   Clear
9:35 AM -2.2 °F -18.9 °F -12.1 °F 63% 30.47 in 10.0 mi NW 10.4 mph 17.3 mph N/A   Clear
9:55 AM -1.3 °F -21.0 °F -11.2 °F 63% 30.48 in 10.0 mi NW 15.0 mph - N/A   Clear
10:15 AM -0.4 °F -19.2 °F -10.5 °F 62% 30.49 in 10.0 mi NNW 13.8 mph 19.6 mph N/A   Clear
10:35 AM 0.1 °F -19.2 °F -10.3 °F 61% 30.51 in 10.0 mi NW 15.0 mph 19.6 mph N/A   Clear
10:55 AM 1.0 °F -16.6 °F -9.8 °F 61% 30.51 in 10.0 mi NW 12.7 mph 21.9 mph N/A   Clear
11:15 AM 1.4 °F -13.5 °F -10.1 °F 59% 30.52 in 10.0 mi NW 9.2 mph 16.1 mph N/A   Clear
11:35 AM 2.3 °F -14.2 °F -9.2 °F 59% 30.51 in 10.0 mi NW 11.5 mph 16.1 mph N/A   Clear
12:00 PM 2.8 °F -12.7 °F -9.0 °F 58% 30.51 in 10.0 mi NW 10.4 mph 18.4 mph N/A   Clear
12:20 PM 3.6 °F -12.6 °F -8.7 °F 57% 30.51 in 10.0 mi NW 11.5 mph 17.3 mph N/A   Clear
12:35 PM 4.1 °F -11.1 °F -8.1 °F 57% 30.51 in 10.0 mi WNW 10.4 mph - N/A   Clear
1:00 PM 4.5 °F -11.5 °F -8.1 °F 56% 30.51 in 10.0 mi NW 11.5 mph - N/A   Clear
1:15 PM 4.8 °F -11.1 °F -8.0 °F 56% 30.51 in 10.0 mi WNW 11.5 mph - N/A   Clear
1:35 PM 5.2 °F -12.1 °F -7.8 °F 55% 30.51 in 10.0 mi WNW 13.8 mph - N/A   Clear
1:55 PM 5.2 °F -10.6 °F -8.0 °F 55% 30.51 in 10.0 mi West 11.5 mph - N/A   Clear
2:15 PM 5.5 °F -9.3 °F -7.8 °F 54% 30.51 in 10.0 mi West 10.4 mph - N/A   Clear
2:35 PM 5.0 °F -11.6 °F -8.1 °F 55% 30.51 in 10.0 mi West 12.7 mph - N/A   Clear
2:55 PM 5.4 °F -11.1 °F -8.0 °F 54% 30.52 in 10.0 mi West 12.7 mph 18.4 mph N/A   Clear
3:15 PM 4.8 °F -12.5 °F -8.5 °F 54% 30.52 in 10.0 mi West 13.8 mph - N/A   Clear
3:35 PM 4.6 °F -12.0 °F -8.1 °F 56% 30.53 in 10.0 mi West 12.7 mph 16.1 mph N/A   Clear
3:55 PM 3.6 °F -13.4 °F -8.5 °F 57% 30.53 in 10.0 mi West 12.7 mph - N/A   Clear
4:15 PM 2.8 °F -13.5 °F -9.4 °F 57% 30.53 in 10.0 mi West 11.5 mph 16.1 mph N/A   Clear
4:35 PM 2.3 °F -14.2 °F -9.6 °F 58% 30.53 in 10.0 mi West 11.5 mph - N/A   Clear
4:55 PM 1.0 °F -14.9 °F -10.3 °F 59% 30.53 in 10.0 mi West 10.4 mph - N/A   Clear
5:15 PM 0.1 °F -17.7 °F -10.3 °F 61% 30.54 in 10.0 mi West 12.7 mph - N/A   Clear
5:35 PM -1.5 °F -20.5 °F -10.7 °F 65% 30.54 in 10.0 mi West 13.8 mph - N/A   Clear
5:55 PM -2.6 °F -21.9 °F -11.7 °F 65% 30.54 in 10.0 mi West 13.8 mph - N/A   Clear
6:15 PM -3.6 °F -23.3 °F -12.3 °F 67% 30.54 in 10.0 mi West 13.8 mph - N/A   Clear
6:35 PM -4.2 °F -24.0 °F -13.2 °F 65% 30.54 in 10.0 mi West 13.8 mph - N/A   Clear
6:55 PM -4.9 °F -25.6 °F -13.7 °F 66% 30.54 in 10.0 mi West 15.0 mph 19.6 mph N/A   Clear
7:15 PM -5.4 °F -26.3 °F -14.4 °F 65% 30.54 in 10.0 mi West 15.0 mph - N/A   Clear
7:35 PM -5.8 °F -27.5 °F -14.8 °F 65% 30.53 in 10.0 mi West 16.1 mph - N/A   Clear
7:55 PM -6.3 °F -27.5 °F -15.0 °F 66% 30.53 in 10.0 mi West 15.0 mph - N/A   Clear
8:15 PM -6.9 °F -27.4 °F -15.3 °F 67% 30.52 in 10.0 mi West 13.8 mph - N/A   Clear
8:35 PM -7.6 °F -28.3 °F -15.9 °F 67% 30.52 in 10.0 mi West 13.8 mph - N/A   Clear
8:55 PM -7.6 °F -27.5 °F -15.7 °F 68% 30.51 in 10.0 mi West 12.7 mph - N/A   Clear
9:15 PM -7.6 °F -28.3 °F -15.3 °F 69% 30.50 in 10.0 mi WSW 13.8 mph - N/A   Clear
9:35 PM -7.6 °F -26.6 °F -15.3 °F 69% 30.50 in 10.0 mi WSW 11.5 mph - N/A   Clear
9:55 PM -7.8 °F -28.6 °F -15.3 °F 70% 30.49 in 10.0 mi WSW 13.8 mph - N/A   Clear
10:15 PM -8.0 °F -27.1 °F -15.3 °F 70% 30.48 in 10.0 mi WSW 11.5 mph - N/A   Clear
10:35 PM -8.1 °F -28.2 °F -15.3 °F 71% 30.47 in 10.0 mi WSW 12.7 mph - N/A   Clear
10:55 PM -8.5 °F -30.2 °F -15.3 °F 72% 30.46 in 10.0 mi WSW 15.0 mph - N/A   Clear
11:15 PM -8.0 °F -27.1 °F -14.8 °F 72% 30.45 in 10.0 mi WSW 11.5 mph - N/A   Clear
11:35 PM -7.8 °F -26.8 °F -14.1 °F 74% 30.44 in 10.0 mi SW 11.5 mph - N/A   Clear
11:55 PM -8.5 °F -26.8 °F -14.6 °F 75% 30.43 in 10.0 mi SW 10.4 mph - N/A   Clear